Location: Broek
(53.2737°N, 5.9967°E)
Time: 21:15:51
(UTC+00:00)

Cosmos 921 Rocket - Pass Details

Date: 10 October 2024
Orbit: 566 x 624 km, 75.8° (Epoch: 10 November)

Event Time Altitude Azimuth Distance (km) Brightness Sun altitude
Rises 17:55:36 0° 175° (S) 2,890 6.4 -10.5°
Reaches altitude 10° 17:57:59 10° 166° (SSE) 1,993 5.5 -10.9°
Maximum altitude 18:01:59 34° 102° (ESE) 1,045 3.7 -11.5°
Drops below altitude 10° 18:06:02 10° 38° (NE) 2,009 5.4 -12.1°
Sets 18:08:26 0° 29° (NNE) 2,918 6.3 -12.4°
